Location: Cartersville (historical)
(42.9944°N, 93.0869°W)
Time: 14:11:05
(UTC+00:00)

ARIANE 6 FM1 Upper Stage - Pass Details

Date: 09 November 2025
Orbit: 522 x 611 km, 62.0° (Epoch: 10 December)

Event Time Altitude Azimuth Distance (km) Brightness Sun altitude
Rises 00:07:36 0° 242° (WSW) 2,677 7.7 -13.5°
Reaches altitude 10° 00:09:59 10° 253° (WSW) 1,778 6.6 -13.9°
Maximum altitude 00:13:34 31° 317° (NW) 944 4.1 -14.5°
Drops below altitude 10° 00:17:07 10° 21° (NNE) 1,767 4.9 -15.2°
Enters shadow 00:17:13 10° 22° (NNE) 1,803 5.0 -15.2°
